www.pogodaiklimat.ru

Погода и климат >> Архив погоды >> Италия >> Capo Frasca


ПОГОДА в Capo Frasca

  • Прогноз погоды в Capo Frasca
  • Монитор погоды в Capo Frasca
  • Климат города

АРХИВ ПОГОДЫ в Capo Frasca

Время (UTC), дата Ветер
(напр.,м/с)
 
Видим.   Явления Облачность Т
(С)
Тd
(С)
f
(%)
Тe
(С)
Тes
(С)
Комфортность P
(гПа)
Po
(гПа)
Тmin
(С)
Tmax
(С)
R
(мм)
R24
(мм)
S
(см)
09 11.08 С 3 20 км 9/0
[Ci fib]
+29.2 +23.9 73 +40 +50 очень
душно
1019.8 1009.0
12 11.08 СЗ 6 20 км 5/0
[Ci fib]
+29.0 +25.8 83 +43 +49 опасность
перегрева
1019.8 1009.0
15 11.08 СЗ 7 20 км 5/0
[Ci fib]
+28.8 +28.1 96 +48 +50 опасность
перегрева
1019.2 1008.3
18 11.08 СЗ 5 20 км ясно +27.4 +25.6 90 +40 +40 очень
душно
1018.2 1007.3 +30.8
06 12.08 С 1 20 км ясно +23.8 +23.1 96 +32 +33 очень
душно
1017.5 1006.5 +21.4
09 12.08 СЗ 5 20 км ясно +28.2 +24.0 78 +39 +46 очень
душно
1017.5 1006.6
12 12.08 СЗ 5 20 км ясно +28.4 +26.2 88 +43 +52 опасность
перегрева
1017.5 1006.6
15 12.08 СЗ 6 20 км ясно +28.4 +25.2 83 +41 +44 опасность
перегрева
1016.8 1005.9
18 12.08 СЗ 5 20 км ясно +27.4 +25.2 88 +40 +40 очень
душно
1015.9 1005.0 +29.8
06 13.08 ЮВ 2 25 км ясно +23.0 +22.0 94 +31 +33 очень
душно
1013.8 1002.7 +19.8
09 13.08 ЮЗ 2 25 км 1/0
[Ci fib]
+29.6 +22.6 66 +39 +51 опасность
солнечного
удара
1013.8 1003.0
12 13.08 З 5 25 км 3/1 750 м
[Cu med, cong Ci fib]
+29.2 +27.2 89 +46 +55 опасность
перегрева
1014.0 1003.2
15 13.08 СЗ 5 25 км 4/1 600 м
[Cb cap Ci fib]
+30.0 +27.0 84 +47 +51 опасность
перегрева
1012.8 1002.0
18 13.08 СЗ 2 25 км 8/3 540 м
[Cb cap Ac trans Ci fib]
+28.0 +28.0 100 +46 +46 опасность
перегрева
1012.8 1002.0 +30.4
06 14.08 С 2 20 км 3/1 750 м
[Cu hum As trans]
+24.0 +23.0 94 +32 +33 очень
душно
1012.8 1001.9 +22.6
09 14.08 СЗ 2 25 км 6/3 750 м
[Cu hum As trans Ci fib]
+27.2 +25.4 90 +40 +47 очень
душно
1013.7 1002.9
12 14.08 СЗ 5 25 км 9/3 750 м
[Cu med, cong As trans Ci fib]
+28.6 +27.9 96 +47 +51 опасность
перегрева
1013.4 1002.6
15 14.08 СЗ 4 10 км гроза с градом {дождь} 10/4 600 м
[Cb calv Ac trans Ci fib]
+21.6 +21.6 100 +28 +30 очень
душно
1014.9 1003.8
06 15.08 СЗ 6 20 км 5/5 600 м
[Cu Sc]
+24.6 +24.6 100 +34 +35 очень
душно
1011.9 1001.0 +21.8
09 15.08 СВ 3 20 км 3/1 600 м
[Cu med, cong Ci fib]
+27.2 +25.4 90 +40 +48 очень
душно
1012.4 1001.5
12 15.08 СЗ 6 20 км 3/3 750 м
[Cu med, cong Ci fib]
+28.4 +25.8 86 +42 +47 опасность
перегрева
1012.8 1002.0
15 15.08 СЗ 8 20 км 4/1 600 м
[Cu med, cong Ac trans Ci fib]
+28.6 +27.4 93 +46 +47 опасность
перегрева
1012.8 1002.0
18 15.08 С 9 25 км 3/3 600 м
[Cb cap]
+26.8 +26.8 100 +42 +42 опасность
перегрева
1012.9 1002.0 +29.4
06 16.08 В 2 20 км 1/1 750 м
[Cu hum As trans Ci fib]
+22.2 +21.2 94 +29 +30 очень
душно
1013.6 1002.5 +20.4
09 16.08 В 2 25 км 1/1 750 м
[Cu hum]
+27.2 +24.9 87 +39 +50 очень
душно
1013.9 1003.0
12 16.08 СЗ 5 25 км 3/3 750 м
[Cu med, cong]
+28.8 +26.6 88 +45 +51 опасность
перегрева
1013.6 1002.8
15 16.08 СЗ 8 25 км 4/4 750 м
[Cu med, cong]
+29.2 +28.1 94 +49 +49 опасность
перегрева
1013.0 1002.2
18 16.08 СЗ 6 25 км 3/3 750 м
[Cb calv]
+26.8 +26.6 99 +41 +41 опасность
перегрева
1012.9 1002.0 +29.8
06 17.08 В 2 20 км 3/3 450 м
[Cu hum]
+23.2 +22.5 96 +32 +33 очень
душно
1013.8 1002.8 +21.4
09 17.08 СВ 2 20 км ясно +27.2 +24.9 87 +39 +51 опасность
солнечного
удара
1014.4 1003.5
12 17.08 СЗ 5 20 км ясно +28.2 +25.8 87 +42 +51 опасность
перегрева
1014.4 1003.6
15 17.08 З 7 20 км 4/4 750 м
[Cb calv]
+29.0 +27.6 92 +47 +48 опасность
перегрева
1013.9 1003.1
18 17.08 З 3 20 км 5/5 750 м
[Cb calv]
+27.6 +27.3 98 +44 +44 опасность
перегрева
1013.9 1003.0 +29.4

 

Местоположение метеостанции Capo Frasca (Италия): широта 39.75 долгота 8.47 высота над уровнем моря 89 м.

В архиве по умолчанию представлена погода в Capo Frasca за последнюю неделю. Архивные данные за месяц целиком и за предыдущие месяцы, начиная с января 2011 года, Вы можете получить, выбрав интересующий диапазон дат из раскрывающегося списка и нажав кнопку "Ввод!".


*Определитесь, кто Вы:
робот инопланетянин человек

Внимание! Время в таблицах - всемирное. Для получения местного времени необходимо прибавить поправку, которая в Capo Frasca равна 1 ч.

Смотрите также архив погоды в соседних городах и на ближайших метеорологических станциях:

Погода в Decimomannu (Италия) (62 км)
Погода в Capo Caccia (Италия) (95 км)
Погода в Alghero (Италия) (99 км)
Погода в Capo Bellavista (Италия) (109 км)
Погода в Capo Carbonara (Италия) (116 км)
Погода в Olbia (Италия) (156 км)
Погода в Cap Pertusato (Франция) (190 км)
Погода в Figari (Франция) (202 км)
Погода в La Parata (Франция) (242 км)
Погода в Ajaccio (Франция) (243 км)

Пояснения к столбцам:

Ветер - указаны скорость ветра в м/с - средняя за 10 мин, порывы в срок и между сроками (в фигурных скобках) и направление, откуда дует ветер: С - северный, СВ - северо-восточный, В - восточный, ЮВ - юго-восточный, Ю - южный, ЮЗ - юго-западный, З - западный, СЗ - северо-западный.
Видимость - горизонтальная дальность видимости в метрах или километрах. При видимости от 1 до 10 км при отсутствии осадков обычно наблюдается дымка, при ухудшении видимости до 1 км и менее - туман. В сухую погоду видимость может ухудшаться дымом, пылью или мглою.
Явления - указаны атмосферные явления, наблюдавшиеся в срок или в последний час перед сроком; фигурными скобками обозначены явления, наблюдавшиеся между сроками (за 1-3 часа до срока); квадратными скобками обозначены град или гололедные отложения с указанием их диаметра в мм.
Облачность - указаны через наклонную черту общая и нижняя облачность в баллах и высота нижней границы облаков в метрах; квадратными скобками обозначены формы облаков: Ci - перистые, Cs - перисто-слоистые, Cc - перисто-кучевые, Ac - высококучевые, As - высокослоистые, Sc - слоисто-кучевые, Ns - слоисто-дождевые, Cu - кучевые, Cb - кучево-дождевые. Подробнее классификацию облаков см. в Атласе облаков (PDF).
T - Температура воздуха - температура, измеренная на высоте 2 м над землей.
Td - Температура точки росы - температура, при понижении до которой содержащийся в воздухе водяной пар достигнет насыщения.
f - Относительная влажность воздуха - влажноcть воздуха, измеренная на высоте 2 м над землей.
Te - Эффективная температура - температура, которую ощущает одетый по сезону человек в тени. Характеристика душности погоды. При расчете учитывается влияние влажности воздуха и скорости ветра на теплоощущения человека.
Tes - Эффективная температура на солнце - температура, которую ощущает человек, с поправкой на солнечный нагрев. Характеристика знойности погоды. Зависит от высоты солнца над горизонтом, облачности и скорости ветра. Ночью, в пасмурную погоду, а также при ветре 12 м/с и более поправка равна нулю.
P - Атмосферное давление - приведенное к уровню моря атмосферное давление.
Po - Атмосферное давление - измеренное на уровне метеостанции атмосферное давление.
Tmin - Минимальная температура - минимум температуры воздуха на высоте 2 м над землей.
Tmax - Максимальная температура - максимум температуры воздуха на высоте 2 м над землей.
R - Количество осадков - Количество выпавших осадков за период времени, мм. При наведении курсора мыши на число - период времени, за который выпало указанное количество осадков.
R24 - Количество осадков - Количество выпавших осадков за 24 часа, мм.
S - Снежный покров - Высота снежного покрова, см. При наведении курсора мыши на число - состояние снежного покрова и степень покрытия местности в баллах.